Location: Newark
(48.3453°N, 0.5589°E)
Time: 23:59:45
(UTC+00:00)

Courier 1B Rocket - Visible Passes

Search period start: 10 December 2019 00:00
Search period end: 20 December 2019 00:00
Orbit: 920 x 1202 km, 28.2° (Epoch: 09 December)

Date Brightness Start Highest point End Pass type
(mag) Time Alt. Az. Time Alt. Az. Time Alt. Az.
12 Dec 7.6 06:16:24 10° S 06:18:14 11° S 06:20:02 10° SSE visible
14 Dec 7.4 06:06:10 10° SSW 06:09:02 13° S 06:11:49 10° SSE visible
15 Dec 7.4 05:05:42 10° SSW 05:08:22 12° S 05:10:58 10° SSE visible
15 Dec 7.4 06:57:46 10° SSW 07:00:28 12° S 07:03:05 10° SSE visible
16 Dec 7.5 04:06:31 11° S 04:07:40 11° SSE 04:09:31 10° SSE visible
16 Dec 7.4 05:56:33 10° SSW 05:59:48 14° S 06:02:59 10° SSE visible
17 Dec 7.3 04:55:47 10° SSW 04:59:07 14° S 05:02:29 10° SSE visible
17 Dec 7.4 06:48:59 10° SSW 06:51:13 12° SSW 06:53:24 10° S visible
18 Dec 7.3 03:58:38 13° S 03:58:38 13° S 04:01:37 10° SE visible
18 Dec 7.3 05:47:18 10° SW 05:50:34 13° S 05:53:45 10° SSE visible
19 Dec 7.2 04:47:48 13° SSW 04:49:52 15° S 04:53:33 10° SSE visible
19 Dec 7.6 06:41:52 10° SSW 06:41:56 10° SSW 06:42:00 10° SSW visible
